Date String (YYYY-MM-DD hh:mm:ss) UTC,Instrument flags,Ambient pressure (hPa),Sample flow (lpm),Bypass flow (lpm),Sample temperature (°C),Ambient temperature (°C),ASC tube jacket temperature (°C),LED temperature (°C),Box temperature (°C),Sample RH (%),Span deviation,Mass concentration (μg/m³),Mass concentration (μg/m³),Mass concentration (μg/m³)
DateTimeUTC,F1_M11,P_M11,Q1_M11,Q2_M11,T1_M11,T2_M11,T3_M11,T4_M11,T5_M11,U1_M11,ZSPAN_M11,X0_M11,X2_M11,X1_M11
2022-10-09 23:00:00,,0830.4,4.99,0.00,30.0,29.1,00.0,38.6,32.0,12.8,0000.0,0012.74,0005.37,0004.88
2022-10-09 23:01:00,,0830.5,5.01,0.00,30.0,28.9,00.0,38.6,32.0,12.7,0000.0,0012.81,0005.37,0004.88
2022-10-09 23:02:00,,0830.5,4.99,0.00,30.0,27.5,00.0,38.6,31.8,12.7,0000.0,0013.03,0005.38,0004.88
2022-10-09 23:03:00,,0830.5,5.00,0.00,29.9,26.9,00.0,38.6,31.7,12.7,0000.0,0012.48,0005.40,0004.88
2022-10-09 23:04:00,,0830.4,5.02,0.00,29.9,27.1,00.0,38.6,31.6,12.8,0000.0,0012.48,0005.41,0004.89
2022-10-09 23:05:00,,0830.4,5.00,0.00,29.8,27.3,00.0,38.5,31.6,13.1,0000.0,0010.74,0005.43,0004.89
2022-10-09 23:06:00,,0830.4,4.99,0.00,29.8,27.6,00.0,38.5,31.6,13.2,0000.0,0010.26,0005.42,0004.89
2022-10-09 23:07:00,,0830.4,5.00,0.00,29.8,27.9,00.0,38.5,31.6,12.9,0000.0,0010.15,0005.38,0004.88
2022-10-09 23:08:00,,0830.3,5.00,0.00,29.8,28.2,00.0,38.5,31.7,13.1,0000.0,0010.04,0005.37,0004.87
2022-10-09 23:09:00,,0830.4,5.01,0.00,29.8,28.4,00.0,38.5,31.7,13.2,0000.0,0009.16,0005.37,0004.86
2022-10-09 23:10:00,,0830.4,4.99,0.00,29.8,28.6,00.0,38.5,31.7,13.4,0000.0,0009.15,0005.33,0004.85
2022-10-09 23:11:00,,0830.4,5.01,0.00,29.9,28.7,00.0,38.6,31.8,13.3,0000.0,0009.21,0005.34,0004.84
2022-10-09 23:12:00,,0830.4,4.99,0.00,29.9,28.8,00.0,38.6,31.9,13.0,0000.0,0009.13,0005.34,0004.83
2022-10-09 23:13:00,,0830.4,5.02,0.00,29.9,28.9,00.0,38.6,31.9,13.0,0000.0,0008.81,0005.32,0004.82
2022-10-09 23:14:00,,0830.4,4.99,0.00,30.0,29.0,00.0,38.6,31.9,12.7,0000.0,0008.64,0005.28,0004.81
2022-10-09 23:15:00,,0830.5,5.01,0.00,30.0,28.0,00.0,38.6,31.8,12.7,0000.0,0008.39,0005.26,0004.80
2022-10-09 23:16:00,,0830.4,5.00,0.00,29.9,26.5,00.0,38.6,31.6,12.9,0000.0,0008.43,0005.23,0004.80
2022-10-09 23:17:00,,0830.4,4.99,0.00,29.8,26.1,00.0,38.5,31.4,13.0,0000.0,0008.48,0005.23,0004.82
2022-10-09 23:18:00,,0830.4,5.00,0.00,29.7,26.3,00.0,38.5,31.3,13.4,0000.0,0008.70,0005.28,0004.82
2022-10-09 23:19:00,,0830.4,5.01,0.00,29.7,26.7,00.0,38.4,31.3,13.0,0000.2,0008.79,0005.29,0004.82
2022-10-09 23:20:00,,0830.4,5.01,0.00,29.6,27.1,00.0,38.4,31.4,13.1,0000.0,0008.88,0005.26,0004.81
2022-10-09 23:21:00,,0830.4,4.99,0.00,29.6,27.5,00.0,38.4,31.4,13.0,0000.0,0008.96,0005.29,0004.82
2022-10-09 23:22:00,,0830.4,5.01,0.00,29.6,27.7,00.0,38.4,31.4,13.1,-000.5,0009.15,0005.31,0004.83
2022-10-09 23:23:00,,0830.4,5.01,0.00,29.6,28.0,00.0,38.4,31.5,13.1,-000.1,0010.00,0005.32,0004.83
2022-10-09 23:24:00,,0830.4,4.98,0.00,29.6,28.2,00.0,38.4,31.5,12.9,-000.4,0010.22,0005.29,0004.83
2022-10-09 23:25:00,,0830.4,5.01,0.00,29.7,28.4,00.0,38.4,31.6,12.9,-000.1,0010.20,0005.29,0004.83
2022-10-09 23:26:00,,0830.4,4.99,0.00,29.7,28.5,00.0,38.4,31.6,13.1,0000.0,0010.13,0005.31,0004.84
2022-10-09 23:27:00,,0830.4,5.00,0.00,29.7,28.6,00.0,38.4,31.7,13.0,0000.0,0010.12,0005.33,0004.83
2022-10-09 23:28:00,,0830.4,5.00,0.00,29.7,28.7,00.0,38.4,31.7,12.9,0000.0,0010.40,0005.34,0004.83
2022-10-09 23:29:00,,0830.4,4.99,0.00,29.8,28.8,00.0,38.4,31.7,12.8,0000.0,0010.86,0005.35,0004.84
2022-10-09 23:30:00,,0830.3,5.01,0.00,29.8,28.9,00.0,38.5,31.8,12.6,0000.0,0010.84,0005.33,0004.85
2022-10-09 23:31:00,,0830.4,4.99,0.00,29.9,29.0,00.0,38.5,31.9,12.6,0000.0,0010.72,0005.37,0004.87
2022-10-09 23:32:00,,0830.3,5.00,0.00,29.9,29.0,00.0,38.5,31.9,12.7,0000.0,0010.84,0005.36,0004.87
2022-10-09 23:33:00,,0830.3,4.99,0.00,29.9,28.2,00.0,38.5,31.9,12.5,0000.0,0010.87,0005.37,0004.86
2022-10-09 23:34:00,,0830.3,5.00,0.00,29.9,26.9,00.0,38.5,31.7,12.7,0000.0,0010.17,0005.38,0004.87
2022-10-09 23:35:00,,0830.2,5.01,0.00,29.8,26.9,00.0,38.5,31.6,12.8,0000.0,0009.97,0005.38,0004.87
2022-10-09 23:36:00,,0830.2,4.99,0.00,29.8,27.1,00.0,38.4,31.5,12.7,0000.0,0010.38,0005.40,0004.88
2022-10-09 23:37:00,,0830.3,4.99,0.00,29.7,27.4,00.0,38.4,31.5,12.8,0000.0,0010.34,0005.38,0004.88
2022-10-09 23:38:00,,0830.3,4.98,0.00,29.7,27.7,00.0,38.4,31.5,12.7,0000.0,0010.28,0005.38,0004.88
2022-10-09 23:39:00,,0830.3,5.00,0.00,29.7,27.9,00.0,38.4,31.6,12.7,0000.0,0009.88,0005.37,0004.87
2022-10-09 23:40:00,,0830.3,5.00,0.00,29.7,28.2,00.0,38.4,31.6,12.8,0000.0,0009.35,0005.35,0004.87
2022-10-09 23:41:00,,0830.2,5.00,0.00,29.7,28.4,00.0,38.4,31.7,12.8,0000.0,0009.33,0005.34,0004.86
2022-10-09 23:42:00,,0830.2,5.01,0.00,29.8,28.5,00.0,38.5,31.7,12.8,0000.0,0009.51,0005.33,0004.85
2022-10-09 23:43:00,,0830.2,4.99,0.00,29.8,28.7,00.0,38.5,31.8,12.6,0000.0,0009.27,0005.31,0004.84
2022-10-09 23:44:00,,0830.3,4.99,0.00,29.8,28.7,00.0,38.5,31.8,12.4,0000.0,0009.24,0005.30,0004.84
2022-10-09 23:45:00,,0830.2,5.01,0.00,29.9,28.8,00.0,38.5,31.8,12.7,0000.1,0009.26,0005.31,0004.85
2022-10-09 23:46:00,,0830.2,4.99,0.00,29.9,28.9,00.0,38.5,31.9,12.6,0001.1,0009.39,0005.32,0004.85
2022-10-09 23:47:00,,0830.2,5.02,0.00,29.9,28.6,00.0,38.5,31.9,12.7,0001.1,0009.09,0005.30,0004.85
2022-10-09 23:48:00,,0830.2,5.00,0.00,29.9,27.2,00.0,38.5,31.5,12.8,0001.3,0009.19,0005.32,0004.85
2022-10-09 23:49:00,,0830.2,5.00,0.00,29.8,26.7,00.0,38.5,31.5,12.9,0001.1,0009.69,0005.34,0004.85
2022-10-09 23:50:00,,0830.3,5.01,0.00,29.7,26.9,00.0,38.5,31.4,13.0,0002.1,0009.97,0005.33,0004.85
2022-10-09 23:51:00,,0830.2,5.00,0.00,29.7,27.2,00.0,38.4,31.4,13.1,0001.5,0010.04,0005.34,0004.86
2022-10-09 23:52:00,,0830.2,5.00,0.00,29.7,27.5,00.0,38.4,31.4,13.1,0000.3,0010.38,0005.39,0004.86
2022-10-09 23:53:00,,0830.3,4.99,0.00,29.7,27.8,00.0,38.4,31.5,13.1,0000.0,0010.37,0005.45,0004.88
2022-10-09 23:54:00,,0830.2,5.01,0.00,29.7,28.0,00.0,38.4,31.5,13.1,0000.0,0011.18,0005.51,0004.90
2022-10-09 23:55:00,,0830.3,5.01,0.00,29.7,28.2,00.0,38.4,31.6,13.1,0000.0,0011.66,0005.62,0004.92
2022-10-09 23:56:00,,0830.2,5.00,0.00,29.7,28.4,00.0,38.4,31.7,13.1,0000.7,0011.70,0005.66,0004.94
2022-10-09 23:57:00,,0830.3,5.01,0.00,29.7,28.6,00.0,38.4,31.7,13.0,0000.0,0011.84,0005.69,0004.96
2022-10-09 23:58:00,,0830.2,4.99,0.00,29.8,28.7,00.0,38.5,31.8,13.0,0000.0,0012.29,0005.72,0004.98
2022-10-09 23:59:00,,0830.2,4.99,0.00,29.8,28.8,00.0,38.5,31.8,12.9,-000.0,0012.23,0005.75,0005.00
